Wind_Speed
11 11 10 10 9 10 10 11 11 11 12 12 12 11 11 12 12 12 11 11 11 11 11 11 11 11 10 11 10 10 9 10 10 9 9 9 9 9 8 8 8 9 9
10 9 9 9 9 9 10 10 11 11 11 12 12 12 12 12 13 13 13 12 11 11 11 11 11 10 10 10 10 10 10 10 9 9 9 9 8 8 8 8 8 8 8
9 8 8 8 8 9 9 10 10 10 11 11 11 11 12 12 12 13 13 12 12 11 11 11 10 10 10 9 9 10 9 9 9 8 8 8 8 8 8 8 7 7 7
8 8 8 8 8 8 9 9 10 10 10 10 10 11 11 11 12 12 12 11 11 11 10 10 10 9 9 9 9 9 9 9 9 8 8 8 8 8 8 7 7 7 6
7 7 7 7 8 8 8 9 9 9 9 10 10 10 11 11 11 11 10 10 10 10 10 9 9 9 9 8 8 8 8 8 8 8 8 7 7 7 7 6 6 6 6
7 6 7 7 7 7 8 8 8 8 9 9 9 10 10 10 10 10 9 9 9 9 9 9 9 8 9 8 8 7 8 8 8 8 7 7 7 7 6 6 6 6 6
6 6 6 6 6 6 7 7 7 8 8 8 9 9 9 8 8 9 8 9 9 8 8 8 8 8 8 8 7 7 7 7 7 7 7 7 7 6 6 5 5 5 5
6 6 5 6 6 6 7 7 7 7 7 8 8 8 8 8 8 8 8 8 8 8 8 8 8 7 7 7 7 7 7 7 7 7 6 6 6 5 5 5 5 5 4
6 6 5 5 6 6 6 6 6 6 6 7 7 7 8 7 7 7 7 7 7 7 7 7 7 7 7 7 7 7 7 6 6 6 5 5 5 5 4 4 4 4 4
6 6 5 5 5 6 6 6 6 6 6 6 6 7 7 6 6 7 7 7 6 6 6 6 6 7 6 6 6 6 7 6 6 5 5 5 5 4 4 4 4 3 3
7 6 6 5 5 5 6 6 6 6 6 6 6 5 5 5 5 5 5 5 5 5 6 6 6 6 6 5 5 6 6 5 5 5 4 4 4 4 4 3 3 3 2
7 6 6 6 5 5 5 6 5 5 5 5 4 4 4 4 4 3 3 4 4 4 5 5 5 5 5 5 5 5 5 4 4 4 4 3 3 3 3 3 2 2 2
8 7 6 6 6 5 5 5 5 5 5 4 4 3 3 3 3 3 3 3 3 4 4 4 4 4 4 4 4 4 4 3 3 3 3 2 2 2 2 2 1 1 1
9 8 6 6 6 6 6 6 6 5 5 4 3 3 2 2 2 2 2 3 3 3 3 4 4 4 4 4 4 4 3 3 2 3 2 2 2 2 1 1 1 1 0
9 8 7 7 7 6 6 6 6 5 4 3 2 2 3 2 2 1 1 2 2 3 4 4 4 4 4 4 4 4 3 3 3 2 2 2 2 2 2 1 2 1 1
9 10 9 7 7 6 6 6 5 5 4 3 2 2 1 1 1 1 0 0 1 2 3 4 4 4 4 4 4 3 3 3 3 3 3 3 2 2 2 2 2 2 3
10 10 9 9 8 7 6 6 6 6 4 4 3 2 1 1 1 1 1 1 1 2 2 3 4 4 4 4 4 4 4 4 3 4 4 4 4 4 3 4 4 4 4
10 10 9 9 8 8 7 6 6 6 5 4 4 3 2 1 0 1 1 2 2 3 3 4 4 4 5 5 6 5 5 5 5 5 5 6 6 6 5 5 6 6 6
11 11 10 9 8 8 7 7 7 7 6 5 5 5 4 3 2 2 2 3 3 4 4 5 5 6 6 6 7 7 7 7 7 7 7 7 7 7 7 7 7 7 8
10 11 10 9 10 9 8 8 7 7 7 6 6 5 5 5 4 3 3 3 4 5 5 5 6 7 8 8 8 8 8 9 9 9 9 9 9 9 9 9 9 9 10
11 11 10 10 10 10 8 8 8 7 7 7 6 6 6 6 5 5 4 4 5 6 6 7 8 8 9 10 9 10 10 10 10 11 11 11 11 10 11 11 11 12 12
11 11 10 11 10 10 9 8 8 9 8 8 8 7 6 6 7 6 6 6 7 7 7 8 8 9 9 11 11 11 10 11 11 12 12 13 13 12 12 13 13 13 14
10 10 10 10 10 10 9 9 9 9 9 9 8 7 6 7 7 8 8 7 7 7 8 8 9 9 9 10 11 11 11 12 13 14 14 14 15 14 14 15 15 15 16
9 9 10 11 11 11 9 9 9 9 10 9 8 7 7 7 7 8 9 9 8 8 8 8 9 10 10 11 12 12 12 13 14 15 15 15 15 16 17 17 17 17 17
8 9 10 11 11 11 10 9 9 9 9 9 8 8 7 7 8 8 9 10 10 10 9 9 9 10 11 11 11 12 13 14 15 16 16 17 17 18 18 18 18 18 18
9 10 10 11 12 12 11 10 9 9 9 9 9 9 8 8 8 9 10 10 11 11 10 9 9 10 11 12 12 13 14 15 16 16 17 18 19 19 19 19 19 20 20
Wind_Direction
74 73 73 77 81 84 85 88 89 89 90 91 92 93 93 95 94 96 99 102 102 103 103 102 103 105 106 105 107 110 111 111 108 106 105 106 104 102 101 102 102 104 109
74 75 74 78 81 86 88 91 90 90 91 91 90 91 93 93 93 95 97 103 105 104 103 104 105 104 106 105 105 110 110 111 108 107 107 106 105 104 106 106 107 109 111
75 77 78 80 83 86 88 90 93 93 92 92 91 92 93 94 95 97 96 98 100 103 104 105 106 105 106 107 109 112 110 111 109 105 103 104 105 105 106 108 111 114 112
71 75 78 79 84 88 90 92 93 94 93 92 92 95 95 95 96 97 97 98 99 102 105 108 108 106 109 111 109 111 112 112 108 104 102 104 103 102 104 104 108 112 113
66 73 78 79 82 86 90 92 94 95 94 93 94 98 99 99 98 98 99 99 101 103 106 108 106 105 108 110 108 109 111 111 108 103 100 102 101 102 102 102 103 103 109
62 70 77 82 83 86 90 92 94 94 94 95 96 99 100 100 102 102 102 102 103 104 107 108 107 107 109 110 109 109 112 115 113 109 106 103 102 101 101 100 101 104 107
60 67 76 80 82 86 90 91 93 95 95 96 97 99 102 102 103 105 106 105 104 107 108 109 110 110 109 110 112 114 117 117 117 114 112 110 107 105 104 103 100 102 103
60 66 74 80 82 87 90 91 93 96 96 97 99 99 101 104 106 107 109 110 109 109 110 113 114 114 112 112 112 116 120 120 118 116 113 110 111 111 108 105 107 108 109
62 66 69 75 79 86 91 91 90 93 98 99 98 99 100 100 105 108 112 114 113 113 113 115 117 119 118 116 115 117 122 124 122 119 116 111 111 115 115 113 112 109 110
62 66 68 67 73 81 86 88 89 89 97 101 102 101 101 99 105 110 114 116 116 115 118 120 123 122 122 121 120 123 122 122 122 120 119 115 112 115 116 113 111 108 108
62 68 69 67 70 77 83 86 87 88 95 101 101 98 101 102 106 114 113 118 120 121 126 128 128 127 126 127 124 128 128 125 123 120 119 120 120 119 116 114 111 103 102
62 68 68 69 69 70 75 82 85 91 96 100 104 102 99 99 104 119 124 125 127 128 133 138 139 137 136 136 135 132 134 133 132 130 126 125 126 123 116 111 108 101 103
58 63 67 69 70 68 70 76 75 82 89 96 105 115 112 105 108 118 129 137 133 135 140 148 153 151 151 151 151 150 147 146 150 149 139 142 145 142 138 135 128 117 105
56 60 66 68 69 65 62 64 66 71 80 90 99 108 120 120 106 103 122 139 152 156 161 164 169 170 167 165 162 161 163 167 166 169 166 169 171 171 182 187 192 198 234
51 53 54 59 60 59 57 57 61 66 71 79 94 97 106 107 110 115 128 150 173 175 180 184 183 183 184 186 186 187 187 187 192 191 199 206 211 218 226 229 224 233 255
48 48 48 48 47 51 52 50 52 51 53 56 74 95 98 90 86 106 94 168 196 198 195 197 200 202 205 205 208 210 207 209 217 223 231 231 230 238 243 249 253 254 262
44 45 47 43 41 41 41 40 42 40 35 34 38 52 65 68 65 48 11 292 249 238 233 227 221 218 223 224 224 228 228 233 241 244 246 247 247 251 257 262 260 264 268
35 36 39 38 34 28 25 29 33 30 26 21 19 16 21 16 346 309 311 303 300 275 265 250 241 233 230 232 233 235 239 244 251 253 252 251 253 258 265 269 266 269 272
26 25 27 31 26 19 16 18 22 17 12 12 7 0 358 346 322 306 288 301 301 287 269 254 246 245 241 241 241 244 246 248 251 253 255 256 258 262 268 272 272 273 272
19 17 17 19 17 15 13 12 12 5 1 5 1 352 344 337 324 314 296 294 292 284 270 258 251 247 248 247 249 251 253 254 254 256 259 262 264 267 270 270 271 274 276
11 11 11 11 6 3 3 6 5 357 352 354 349 347 339 336 330 324 311 304 296 290 276 266 261 260 257 252 252 254 257 258 259 262 262 263 265 268 273 273 272 272 275
6 10 8 7 2 359 356 352 352 354 350 347 340 343 347 339 334 332 325 315 303 297 286 273 267 265 263 259 256 254 257 260 261 263 264 264 267 271 273 272 273 273 274
360 7 8 5 4 1 354 350 348 347 347 345 341 334 336 336 335 334 334 326 314 304 295 286 276 276 273 267 260 259 260 263 265 266 267 268 269 271 274 275 275 275 274
357 0 0 359 356 355 352 350 348 350 350 346 342 335 332 332 330 331 331 330 325 314 305 297 288 283 281 277 268 261 262 264 268 270 270 271 272 274 276 275 275 276 276
350 350 348 346 347 348 352 355 354 352 352 352 347 344 336 332 331 329 329 328 327 319 309 298 287 281 281 279 272 266 265 266 268 269 269 271 273 275 276 276 276 277 279
339 340 339 338 339 341 344 347 348 347 348 346 341 338 334 331 328 328 328 327 327 325 321 312 296 288 283 277 273 272 270 268 270 271 270 272 274 276 279 281 281 280 279
Height
5895 5894 5893 5893 5892 5891 5890 5889 5889 5889 5888 5887 5887 5887 5887 5887 5887 5887 5887 5887 5888 5888 5889 5889 5890 5890 5890 5891 5891 5892 5892 5893 5893 5893 5893 5893 5894 5894 5894 5894 5894 5894 5894
5896 5895 5895 5894 5893 5893 5892 5891 5890 5890 5889 5889 5889 5889 5889 5888 5888 5888 5888 5888 5889 5889 5890 5891 5891 5892 5892 5892 5893 5893 5894 5894 5895 5895 5895 5895 5895 5895 5895 5895 5895 5896 5896
5898 5897 5896 5896 5895 5894 5893 5893 5892 5892 5891 5891 5890 5890 5890 5890 5890 5890 5890 5890 5891 5891 5891 5892 5893 5893 5894 5894 5894 5895 5895 5896 5896 5896 5896 5896 5896 5897 5897 5897 5897 5897 5897
5899 5898 5898 5897 5896 5896 5895 5894 5894 5893 5893 5892 5892 5892 5891 5891 5891 5892 5892 5892 5892 5893 5893 5894 5894 5895 5895 5896 5896 5896 5897 5897 5897 5897 5898 5898 5898 5898 5898 5898 5898 5898 5899
5901 5900 5899 5898 5898 5897 5896 5896 5895 5895 5894 5894 5893 5893 5893 5893 5893 5893 5894 5894 5894 5894 5895 5895 5896 5896 5896 5897 5897 5897 5898 5898 5898 5899 5899 5899 5899 5899 5899 5900 5900 5900 5900
5902 5901 5900 5900 5899 5898 5898 5897 5897 5896 5896 5895 5895 5895 5895 5895 5895 5895 5895 5896 5896 5896 5896 5897 5897 5897 5898 5898 5898 5899 5899 5899 5900 5900 5900 5900 5900 5900 5901 5901 5901 5901 5901
5903 5903 5902 5901 5901 5900 5899 5898 5898 5897 5897 5897 5896 5896 5896 5896 5896 5897 5897 5897 5897 5897 5898 5898 5898 5899 5899 5899 5899 5900 5900 5900 5901 5901 5901 5901 5901 5902 5902 5902 5902 5902 5902
5905 5904 5903 5903 5902 5901 5900 5900 5899 5899 5898 5898 5898 5898 5898 5898 5898 5898 5898 5898 5899 5899 5899 5899 5899 5900 5900 5900 5900 5901 5901 5902 5902 5902 5902 5902 5903 5903 5903 5903 5903 5903 5903
5906 5905 5904 5904 5903 5902 5901 5901 5900 5900 5899 5899 5899 5899 5899 5899 5899 5899 5899 5899 5900 5900 5900 5900 5900 5901 5901 5901 5901 5902 5902 5903 5903 5903 5903 5903 5903 5904 5904 5904 5904 5904 5904
5907 5906 5905 5905 5904 5903 5903 5902 5901 5901 5900 5900 5900 5900 5900 5900 5899 5900 5900 5900 5901 5901 5901 5901 5902 5902 5902 5902 5902 5903 5903 5903 5904 5904 5904 5904 5904 5904 5904 5904 5904 5904 5904
5908 5907 5906 5906 5905 5904 5903 5903 5902 5902 5901 5901 5901 5901 5901 5901 5901 5901 5901 5901 5901 5902 5902 5902 5902 5902 5902 5903 5903 5904 5904 5904 5904 5904 5905 5905 5905 5905 5905 5905 5905 5905 5905
5909 5908 5907 5907 5906 5905 5904 5903 5903 5903 5903 5902 5902 5902 5902 5902 5901 5901 5902 5902 5902 5902 5902 5903 5903 5903 5903 5903 5904 5904 5904 5905 5905 5905 5905 5905 5905 5905 5905 5905 5905 5905 5905
5910 5909 5908 5908 5907 5906 5905 5905 5904 5904 5904 5903 5903 5903 5903 5902 5902 5902 5902 5902 5902 5902 5903 5903 5903 5903 5903 5904 5904 5904 5905 5905 5905 5905 5905 5906 5906 5905 5905 5905 5905 5905 5905
5912 5911 5910 5909 5908 5907 5906 5906 5905 5905 5904 5904 5903 5903 5903 5903 5903 5903 5902 5902 5902 5902 5902 5903 5903 5903 5903 5904 5904 5905 5905 5905 5905 5905 5906 5906 5906 5906 5905 5905 5905 5905 5904
5913 5912 5911 5910 5909 5908 5908 5907 5906 5906 5905 5905 5904 5903 5903 5903 5903 5903 5903 5902 5902 5902 5902 5902 5903 5903 5903 5904 5904 5905 5905 5905 5905 5905 5905 5906 5906 5906 5905 5905 5905 5904 5904
5915 5914 5912 5911 5910 5909 5909 5908 5907 5906 5906 5905 5904 5904 5903 5903 5903 5903 5903 5902 5902 5902 5902 5902 5902 5903 5903 5903 5904 5904 5905 5905 5905 5905 5905 5905 5905 5905 5905 5905 5904 5904 5904
5917 5915 5914 5913 5911 5910 5909 5908 5908 5907 5906 5906 5905 5904 5903 5903 5903 5902 5902 5902 5902 5902 5902 5901 5901 5902 5902 5903 5903 5904 5904 5904 5905 5905 5904 5904 5904 5904 5904 5904 5903 5903 5903
5918 5917 5915 5913 5912 5911 5910 5909 5908 5907 5906 5905 5905 5904 5903 5903 5902 5902 5902 5902 5901 5901 5901 5901 5901 5901 5901 5902 5902 5903 5903 5903 5903 5904 5904 5904 5904 5903 5903 5903 5903 5902 5902
5919 5918 5916 5914 5913 5912 5910 5909 5908 5907 5906 5905 5904 5903 5903 5902 5902 5901 5901 5901 5900 5900 5900 5900 5900 5900 5900 5901 5901 5901 5902 5902 5902 5902 5902 5902 5902 5902 5902 5902 5901 5901 5900
5920 5919 5917 5915 5913 5912 5910 5909 5908 5907 5906 5905 5904 5903 5902 5901 5901 5900 5900 5900 5899 5899 5899 5899 5899 5899 5899 5899 5900 5900 5900 5900 5900 5901 5901 5901 5900 5900 5900 5900 5899 5899 5898
5921 5919 5917 5916 5914 5912 5911 5909 5908 5907 5906 5905 5904 5903 5902 5901 5900 5900 5899 5899 5898 5898 5897 5897 5897 5897 5897 5897 5898 5898 5898 5898 5898 5898 5898 5898 5898 5898 5898 5897 5897 5896 5896
5922 5920 5918 5916 5914 5912 5910 5908 5908 5907 5906 5904 5903 5902 5901 5901 5900 5899 5898 5897 5897 5896 5896 5895 5895 5895 5895 5895 5895 5895 5896 5897 5896 5896 5896 5896 5896 5895 5895 5894 5894 5893 5893
5922 5920 5918 5916 5914 5912 5910 5908 5907 5907 5906 5904 5903 5902 5901 5900 5899 5898 5897 5896 5895 5894 5894 5893 5893 5893 5892 5892 5892 5893 5893 5894 5893 5893 5893 5893 5893 5892 5892 5891 5891 5890 5889
5922 5921 5919 5917 5915 5913 5910 5909 5908 5907 5905 5904 5902 5901 5900 5899 5898 5897 5896 5895 5893 5892 5892 5891 5891 5890 5890 5890 5890 5890 5890 5890 5890 5890 5890 5889 5889 5889 5888 5887 5887 5886 5885
5922 5921 5919 5917 5915 5913 5911 5909 5907 5906 5904 5903 5902 5901 5900 5899 5898 5896 5895 5893 5892 5891 5890 5889 5889 5888 5888 5887 5887 5887 5887 5887 5886 5887 5886 5886 5885 5884 5884 5883 5882 5881 5881
5922 5920 5919 5917 5915 5913 5911 5909 5907 5906 5904 5903 5902 5900 5899 5898 5896 5895 5894 5892 5891 5889 5888 5887 5886 5885 5885 5884 5884 5884 5883 5883 5883 5883 5882 5882 5881 5880 5879 5879 5878 5877 5876